Wind_Speed
9 9 9 10 10 10 10 10 9 9 9 8 8 6 6 6 7 6 4 3 3 3 4 4 4 3 4 5 6 6 6 6 7 7 7 7 8 7 7 8 8 7 7
10 9 9 9 9 9 9 9 8 8 8 8 8 7 6 6 7 6 5 4 4 3 4 5 4 4 4 5 5 5 5 6 6 7 7 8 7 7 8 8 9 9 9
10 10 9 9 9 9 9 9 9 8 8 8 8 7 7 7 7 7 6 6 5 4 4 5 5 5 5 5 6 6 6 6 6 7 8 8 8 9 9 9 9 9 9
10 10 10 10 10 9 9 9 9 9 9 9 9 8 9 8 8 7 7 6 5 6 6 6 6 6 6 6 7 7 7 7 7 8 8 9 9 9 9 9 9 9 9
12 12 11 11 10 10 10 10 10 9 10 10 10 10 10 10 9 8 7 7 6 7 7 7 7 7 8 7 7 7 7 7 8 8 9 9 10 10 9 9 9 9 9
14 13 13 13 12 11 11 11 11 10 11 11 11 12 11 11 10 9 9 8 8 8 9 9 8 9 9 9 8 8 8 8 9 9 9 9 9 10 10 10 11 10 10
18 16 16 16 15 14 13 13 13 13 12 12 13 13 13 12 12 11 11 10 10 11 11 11 10 10 10 10 10 10 10 9 10 10 11 11 10 10 10 11 11 11 11
21 19 18 18 18 17 16 15 15 15 15 15 15 15 14 14 14 14 14 13 13 13 13 13 13 12 12 12 12 12 11 11 12 11 12 12 12 12 12 12 12 12 12
23 21 21 20 20 19 19 19 18 17 17 17 17 17 16 16 17 17 16 16 16 16 16 15 14 14 14 14 14 14 13 13 13 13 13 14 14 14 14 14 14 14 14
24 24 23 23 22 22 22 22 21 20 19 19 19 19 18 18 18 18 18 18 17 17 18 19 17 17 16 16 15 14 14 14 14 14 15 15 15 15 15 16 16 16 16
25 24 24 25 24 23 24 24 23 22 21 21 21 21 21 20 20 20 20 20 20 20 20 18 19 18 18 17 17 16 16 16 16 16 16 16 16 16 17 17 18 18 18
28 27 27 27 27 26 26 26 26 25 24 23 23 23 23 22 21 22 23 23 23 23 22 21 20 19 19 19 18 18 17 17 17 18 17 17 18 18 18 19 19 19 19
29 29 29 30 29 29 28 28 27 27 26 26 26 25 25 24 24 24 25 25 25 24 23 22 21 21 21 20 19 19 19 19 20 19 19 19 20 20 21 21 21 21 21
30 31 31 31 31 31 30 29 29 29 28 28 28 28 28 27 26 26 25 26 24 23 24 23 23 23 22 21 20 21 21 21 22 22 22 22 22 22 23 23 23 23 22
31 32 32 32 32 32 31 31 31 31 31 30 30 30 30 30 29 28 27 26 25 25 25 25 24 24 24 23 23 23 23 24 24 24 24 24 24 24 24 24 25 25 24
31 32 33 34 33 33 32 32 33 33 33 33 32 33 33 32 31 31 30 29 28 28 27 26 25 25 25 25 25 25 25 25 25 24 24 24 25 26 27 27 26 26 27
32 32 33 34 34 33 33 34 33 34 35 35 35 34 34 34 33 33 33 33 31 30 30 29 28 28 28 28 28 27 27 26 25 25 26 27 27 28 28 29 29 29 29
32 32 33 34 34 34 34 35 35 36 36 36 35 35 35 35 35 35 34 34 33 32 32 31 30 30 31 30 30 29 29 28 27 28 28 29 30 30 30 30 30 30 30
33 32 33 35 35 36 36 36 37 37 37 37 36 36 37 37 36 35 34 35 34 33 34 33 33 32 32 32 32 31 31 29 29 30 30 31 31 31 31 31 31 30 30
35 34 35 36 37 37 37 37 37 38 38 37 38 38 38 39 38 36 35 35 34 35 35 35 35 34 33 33 33 33 32 31 31 32 32 32 32 32 33 32 33 32 32
35 36 37 37 37 38 38 38 38 39 39 39 40 39 38 38 37 37 36 35 35 35 36 35 35 35 35 35 35 35 34 34 34 33 33 33 33 33 34 35 35 35 35
36 36 35 36 37 37 38 39 39 39 39 38 38 38 38 36 37 37 37 37 37 37 36 36 36 36 36 35 34 34 35 35 35 34 34 34 34 35 36 36 37 37 37
35 36 35 35 35 35 36 36 37 38 38 37 37 37 37 37 38 38 39 38 38 38 38 37 36 35 36 36 35 36 36 36 36 36 36 37 37 37 37 37 38 38 38
35 36 36 36 35 36 36 36 37 38 37 37 36 35 35 36 37 37 37 37 37 37 37 37 37 36 36 36 36 36 36 37 38 38 38 38 39 39 38 39 39 39 39
34 35 36 36 35 35 36 36 35 35 36 35 34 34 35 35 36 37 36 35 36 37 37 36 36 37 36 36 36 37 38 39 39 40 40 40 39 40 40 40 40 40 39
35 35 35 35 36 36 36 36 35 35 34 33 33 34 35 35 35 36 36 35 35 35 36 36 37 37 38 38 38 38 39 39 39 39 39 39 40 40 40 40 39 39 39
Wind_Direction
334 344 351 357 3 7 11 14 18 22 21 21 19 25 32 29 26 24 21 21 13 11 3 357 348 319 291 279 271 270 268 271 277 281 283 283 282 279 278 279 281 280 280
316 324 335 343 348 354 358 0 1 4 7 6 7 8 16 19 19 19 18 10 3 1 350 348 351 341 319 299 283 279 274 278 282 284 287 290 286 281 283 284 283 282 280
304 307 318 326 330 335 343 345 345 347 350 349 351 355 358 2 7 8 7 4 356 345 343 345 341 336 328 314 297 285 277 281 286 290 290 287 284 286 288 288 286 280 278
296 299 303 312 316 318 325 332 334 336 338 337 339 344 350 349 350 350 352 351 344 336 332 332 331 327 322 317 313 302 290 288 292 292 292 289 286 287 290 291 291 289 285
284 289 293 299 304 306 309 315 319 321 324 326 328 329 335 338 338 340 338 336 331 328 329 329 324 317 315 312 308 308 305 305 301 296 294 291 290 289 292 295 293 293 290
277 283 287 290 292 296 301 303 303 305 310 316 320 321 323 326 326 326 324 320 320 321 318 318 316 313 309 306 301 299 298 301 306 304 301 301 301 297 292 291 291 291 290
276 278 281 282 283 287 290 291 292 295 300 304 308 312 314 316 317 315 313 309 309 311 309 307 307 307 304 301 299 295 295 296 299 302 300 299 301 301 300 300 298 296 294
275 275 277 276 276 278 281 284 287 288 291 294 297 299 303 306 307 307 307 305 302 303 305 304 302 302 302 299 296 292 291 291 291 294 297 295 297 299 299 298 299 299 298
269 269 272 274 273 273 275 279 281 282 284 288 291 291 292 295 298 299 302 301 299 299 298 299 300 296 298 296 291 289 285 286 287 287 292 293 293 294 295 295 294 295 294
265 267 267 270 272 272 273 275 277 279 280 283 286 287 287 289 291 293 296 295 294 294 295 292 294 293 292 292 287 288 283 281 284 285 288 290 290 288 291 293 294 294 292
266 265 267 267 269 271 272 273 275 276 277 278 279 281 284 285 287 288 291 292 292 292 293 292 293 291 292 291 287 286 283 281 281 283 285 287 289 290 290 292 293 293 291
265 266 267 266 266 267 269 271 272 273 274 274 275 277 279 282 282 284 287 288 289 290 291 290 291 289 291 293 290 286 283 282 281 281 282 284 287 290 291 292 292 292 290
265 263 263 264 264 266 266 267 270 271 270 271 272 273 275 277 278 280 281 284 287 289 289 287 287 289 290 291 289 287 285 281 280 279 280 281 283 286 287 289 290 290 290
266 263 262 263 263 263 265 266 268 268 267 268 269 271 272 273 275 277 280 282 285 288 290 286 285 286 288 289 288 285 284 283 280 279 279 280 282 285 286 287 289 289 289
265 263 261 263 264 266 266 264 265 267 267 268 267 269 270 272 272 274 277 280 283 285 286 284 282 283 285 286 286 285 285 283 280 279 280 280 281 283 284 287 288 287 287
262 262 261 262 262 263 264 264 265 265 265 267 268 268 269 270 269 270 272 274 279 281 281 281 282 283 283 283 284 285 284 282 280 280 282 283 282 282 283 286 286 286 287
260 261 261 262 261 262 263 263 265 267 266 266 267 268 269 269 269 269 272 273 274 276 277 277 279 280 281 281 281 282 282 282 282 281 282 282 282 282 283 285 285 286 286
262 259 259 261 261 262 263 264 265 267 269 269 267 267 267 268 268 268 271 270 271 274 274 274 275 277 278 278 278 279 279 279 280 281 281 282 282 280 282 284 285 285 285
261 258 259 260 261 261 263 264 265 267 268 268 267 268 267 267 267 267 267 268 270 271 272 272 275 275 275 276 276 276 275 275 277 279 280 282 282 281 282 282 283 284 283
262 260 259 260 261 262 263 264 265 266 268 268 267 268 268 268 267 266 267 266 267 269 271 271 274 274 274 274 275 275 273 275 277 278 279 280 281 281 282 282 282 282 282
264 262 262 264 262 262 262 263 264 265 266 268 268 267 267 266 264 264 265 266 267 269 271 273 275 276 275 274 274 273 272 273 275 277 278 279 279 281 282 282 281 281 281
264 264 264 264 263 262 262 262 264 265 266 268 267 265 266 264 263 265 266 267 269 271 274 274 274 276 276 274 273 272 272 273 274 275 276 278 279 281 282 283 282 281 281
263 264 265 265 264 264 265 265 265 267 267 267 267 267 265 264 264 264 265 267 269 270 272 275 275 276 277 275 274 273 273 273 273 274 276 277 279 280 280 281 282 281 281
263 264 264 264 265 265 266 267 266 266 265 267 267 267 267 266 266 265 265 267 268 269 271 274 275 275 274 274 274 273 272 272 273 274 275 277 279 280 281 282 283 282 282
264 264 265 265 267 267 268 268 267 267 267 269 269 269 270 270 269 267 268 269 271 270 272 274 275 275 274 274 274 273 273 274 274 274 274 276 277 278 279 280 280 280 280
266 267 269 270 270 269 268 268 267 268 269 270 269 269 270 271 271 271 270 270 272 273 273 274 274 273 273 273 274 273 273 274 275 274 274 275 276 277 279 279 279 279 279
Height
5903 5902 5902 5901 5900 5899 5898 5897 5896 5895 5894 5893 5892 5891 5891 5891 5890 5889 5889 5889 5889 5889 5889 5888 5888 5888 5888 5888 5889 5889 5889 5890 5890 5890 5890 5890 5890 5890 5890 5890 5890 5890 5890
5903 5902 5901 5901 5900 5899 5899 5898 5897 5896 5895 5894 5893 5892 5892 5891 5890 5890 5889 5889 5889 5889 5889 5889 5888 5888 5888 5888 5888 5888 5888 5888 5889 5889 5889 5889 5889 5889 5888 5888 5888 5888 5887
5902 5901 5901 5900 5900 5899 5899 5898 5897 5896 5895 5895 5894 5893 5892 5891 5891 5890 5890 5889 5889 5889 5889 5888 5888 5888 5888 5888 5887 5887 5887 5887 5887 5887 5887 5887 5887 5887 5887 5886 5885 5885 5885
5900 5900 5900 5899 5899 5899 5898 5897 5897 5896 5895 5894 5894 5893 5892 5892 5891 5890 5890 5889 5889 5888 5888 5888 5888 5887 5887 5887 5886 5886 5885 5885 5885 5885 5885 5886 5885 5885 5885 5884 5883 5883 5883
5898 5898 5898 5898 5898 5897 5897 5896 5896 5896 5895 5894 5894 5893 5892 5892 5891 5890 5890 5889 5888 5888 5887 5887 5887 5886 5886 5885 5885 5885 5884 5884 5884 5884 5883 5883 5883 5882 5882 5882 5881 5881 5880
5894 5895 5895 5895 5896 5896 5895 5895 5895 5894 5894 5893 5893 5892 5891 5891 5890 5890 5889 5888 5888 5887 5886 5886 5885 5885 5884 5884 5883 5883 5883 5882 5882 5882 5881 5881 5881 5880 5879 5879 5879 5878 5877
5891 5892 5893 5893 5893 5893 5893 5892 5892 5892 5892 5892 5891 5890 5890 5889 5888 5888 5887 5886 5886 5886 5885 5884 5883 5883 5882 5882 5881 5881 5881 5880 5880 5879 5879 5878 5878 5877 5876 5876 5875 5875 5874
5888 5888 5888 5889 5889 5889 5889 5889 5889 5889 5889 5889 5888 5888 5887 5887 5886 5886 5885 5884 5884 5883 5882 5882 5881 5880 5880 5879 5879 5878 5878 5878 5877 5877 5876 5875 5875 5874 5874 5873 5873 5872 5871
5883 5884 5884 5884 5885 5885 5885 5885 5886 5886 5886 5885 5885 5885 5884 5884 5883 5883 5882 5882 5881 5880 5879 5879 5878 5877 5876 5876 5875 5875 5874 5874 5874 5874 5873 5872 5872 5871 5870 5870 5869 5869 5868
5877 5878 5879 5879 5880 5880 5881 5881 5881 5881 5881 5881 5881 5881 5881 5880 5879 5879 5879 5878 5877 5877 5876 5875 5874 5873 5873 5872 5871 5871 5871 5870 5870 5870 5869 5868 5868 5867 5867 5866 5865 5864 5864
5872 5871 5873 5874 5874 5875 5875 5875 5876 5876 5877 5877 5877 5876 5876 5875 5875 5875 5874 5874 5873 5873 5872 5870 5870 5869 5869 5868 5867 5866 5866 5865 5865 5865 5865 5864 5864 5863 5862 5862 5861 5860 5859
5866 5866 5867 5868 5868 5869 5869 5870 5870 5870 5871 5871 5871 5871 5871 5870 5870 5870 5869 5869 5869 5868 5866 5866 5865 5864 5864 5863 5862 5862 5861 5861 5860 5860 5860 5859 5859 5858 5858 5857 5856 5855 5854
5859 5860 5860 5860 5862 5862 5863 5863 5863 5864 5865 5865 5865 5865 5865 5865 5864 5864 5863 5863 5863 5862 5860 5860 5859 5859 5858 5857 5856 5856 5856 5855 5855 5855 5855 5854 5854 5853 5853 5852 5851 5850 5849
5852 5853 5853 5853 5854 5855 5855 5856 5856 5857 5857 5858 5858 5858 5858 5858 5858 5858 5857 5857 5857 5856 5855 5855 5854 5853 5853 5852 5851 5851 5850 5850 5849 5849 5849 5848 5847 5847 5846 5845 5844 5843 5842
5843 5844 5844 5845 5845 5847 5848 5849 5849 5849 5850 5850 5850 5850 5851 5851 5851 5851 5851 5851 5850 5850 5850 5849 5849 5848 5847 5846 5846 5845 5844 5843 5843 5842 5842 5841 5841 5840 5839 5838 5838 5836 5835
5835 5835 5836 5837 5837 5838 5839 5840 5841 5841 5842 5842 5842 5842 5842 5843 5843 5843 5843 5843 5844 5843 5843 5843 5842 5841 5840 5840 5839 5838 5837 5836 5836 5835 5835 5834 5834 5833 5832 5831 5830 5829 5828
5825 5827 5827 5828 5828 5830 5831 5831 5832 5832 5832 5833 5833 5834 5834 5834 5834 5835 5835 5835 5835 5835 5835 5835 5834 5834 5834 5833 5832 5831 5830 5830 5829 5828 5828 5827 5826 5825 5824 5823 5822 5822 5820
5815 5817 5818 5819 5820 5820 5821 5822 5823 5823 5823 5823 5823 5824 5825 5825 5825 5826 5826 5826 5826 5826 5826 5826 5826 5826 5825 5825 5824 5823 5823 5822 5821 5821 5820 5819 5818 5817 5816 5815 5814 5813 5812
5806 5807 5808 5809 5810 5811 5811 5812 5812 5812 5813 5813 5814 5814 5815 5815 5816 5816 5817 5817 5817 5817 5817 5816 5816 5816 5816 5815 5815 5814 5814 5813 5813 5812 5812 5811 5809 5809 5807 5806 5806 5805 5804
5796 5797 5799 5799 5799 5800 5801 5801 5802 5802 5802 5803 5803 5804 5804 5805 5806 5806 5806 5806 5806 5807 5807 5807 5807 5807 5806 5806 5805 5805 5804 5804 5804 5804 5803 5802 5801 5800 5798 5797 5797 5796 5795
5786 5787 5788 5788 5789 5789 5789 5790 5790 5791 5791 5792 5792 5792 5793 5794 5795 5795 5795 5795 5796 5796 5797 5797 5797 5797 5796 5796 5795 5795 5795 5795 5794 5794 5793 5792 5791 5790 5789 5788 5787 5786 5785
5777 5777 5778 5778 5778 5778 5778 5779 5779 5780 5779 5780 5779 5781 5782 5782 5783 5784 5785 5785 5786 5786 5786 5786 5787 5787 5786 5785 5785 5785 5785 5785 5784 5784 5783 5783 5781 5780 5779 5778 5777 5775 5774
5767 5767 5768 5768 5768 5768 5768 5768 5769 5769 5769 5768 5769 5770 5771 5772 5773 5773 5774 5775 5775 5775 5776 5776 5776 5776 5775 5775 5774 5774 5774 5774 5774 5773 5773 5772 5771 5769 5768 5767 5766 5764 5763
5758 5758 5759 5759 5759 5759 5759 5759 5759 5759 5759 5758 5759 5760 5760 5761 5762 5762 5763 5764 5764 5764 5764 5765 5765 5765 5765 5764 5763 5763 5763 5763 5762 5762 5761 5761 5760 5758 5757 5756 5754 5753 5752
5749 5749 5749 5749 5749 5749 5750 5750 5749 5749 5749 5750 5750 5750 5750 5751 5752 5753 5753 5753 5754 5753 5753 5753 5754 5754 5754 5754 5753 5752 5751 5751 5750 5750 5749 5749 5748 5747 5746 5745 5743 5742 5741
5740 5740 5740 5740 5740 5740 5740 5740 5740 5740 5740 5739 5740 5741 5741 5742 5742 5742 5743 5743 5743 5743 5743 5743 5743 5743 5743 5742 5741 5740 5739 5739 5738 5737 5737 5737 5736 5735 5734 5733 5732 5731 5730